Location: Czekanka
(50.4925°N, 19.2643°E)
Time: 14:55:22
(UTC+00:00)

NPP - Visible Passes

Search period start: 14 September 2024 00:00
Search period end: 24 September 2024 00:00
Orbit: 825 x 828 km, 98.7° (Epoch: 14 September)

Date Brightness Start Highest point End Pass type
(mag) Time Alt. Az. Time Alt. Az. Time Alt. Az.
14 Sep 4.2 00:22:51 10° NNE 00:27:26 55° ENE 00:27:26 55° ENE visible
14 Sep 4.8 02:03:42 10° N 02:08:04 26° WNW 02:08:56 25° WNW visible
15 Sep 4.7 00:04:09 10° NNE 00:08:17 40° ENE 00:08:17 40° ENE visible
15 Sep 4.4 01:44:36 10° N 01:49:25 34° WNW 01:49:46 34° WNW visible
15 Sep 5.2 23:45:32 10° NNE 23:49:08 29° ENE 23:49:08 29° ENE visible
16 Sep 4.1 01:25:36 10° N 01:30:37 46° WNW 01:30:37 46° WNW visible
16 Sep 5.8 03:09:20 10° NW 03:09:42 10° NW 03:10:03 10° NW visible
16 Sep 5.6 23:27:06 10° NE 23:29:58 21° ENE 23:29:58 21° ENE visible
17 Sep 3.9 01:06:39 10° N 01:11:27 60° NW 01:11:27 60° NW visible
17 Sep 5.6 02:48:41 10° NNW 02:51:13 14° NW 02:52:57 12° WNW visible
17 Sep 6.0 23:08:54 10° NE 23:10:48 15° ENE 23:10:48 15° ENE visible
18 Sep 3.9 00:47:45 10° NNE 00:52:18 63° N 00:52:18 63° N visible
18 Sep 5.3 02:29:11 10° NNW 02:32:41 18° NW 02:33:47 17° WNW visible
18 Sep 6.3 22:51:26 10° ENE 22:51:38 10° ENE 22:51:38 10° ENE visible
19 Sep 4.3 00:28:56 10° NNE 00:33:08 52° NE 00:33:08 52° NE visible
19 Sep 4.9 02:09:55 10° N 02:14:07 23° WNW 02:14:37 23° WNW visible
20 Sep 4.8 00:10:12 10° NNE 00:13:58 39° NE 00:13:58 39° NE visible
20 Sep 4.6 01:50:47 10° N 01:55:27 31° WNW 01:55:27 31° WNW visible
20 Sep 5.3 23:51:33 10° NNE 23:54:47 29° ENE 23:54:47 29° ENE visible
21 Sep 4.3 01:31:45 10° N 01:36:17 40° NW 01:36:17 40° NW visible
21 Sep 5.7 23:33:01 10° NE 23:35:38 21° ENE 23:35:38 21° ENE visible
22 Sep 4.2 01:12:46 10° N 01:17:07 50° NNW 01:17:07 50° NNW visible
22 Sep 5.6 02:55:05 10° NNW 02:57:12 12° NW 02:58:36 11° WNW visible
22 Sep 6.0 23:14:43 10° NE 23:16:27 15° ENE 23:16:27 15° ENE visible
23 Sep 4.2 00:53:51 10° NNE 00:57:57 52° N 00:57:57 52° N visible
23 Sep 5.3 02:35:27 10° NNW 02:38:41 16° NW 02:39:26 16° WNW visible
23 Sep 6.3 22:56:54 10° ENE 22:57:17 11° ENE 22:57:17 11° ENE visible
